Winnipeg, Manitoba

1:01 AM CDT on August 17, 2017 (GMT -0500)
Winnipeg International Airport

Weather History for CYWG - November, 2011

Change the Weather History Date:

Sunday, November 6, 2011

  Actual Average Record
Temperature  
Mean Temperature 41 °F -  
Max Temperature 49 °F 28 °F 62 °F (2016)
Min Temperature 32 °F 11 °F 5 °F (2003)
Degree Days  
Heating Degree Days 24    
Moisture  
Dew Point 38 °F    
Average Humidity 81    
Maximum Humidity 100    
Minimum Humidity 60    
Precipitation  
Precipitation 0.04 in 0.03 in - ()
Sea Level Pressure  
Sea Level Pressure 29.32 in    
Wind  
Wind Speed 15 mph ()    
Max Wind Speed 22 mph    
Max Gust Speed 30 mph    
Visibility 9.6 miles    
Events Rain , Snow    
Averages and records for this station are not official NWS values.
T = Trace of Precipitation, MM = Missing Value Source: Averaged Metar Reports

Daily Weather History Graph

Daily Weather History Graph

Search for Another Location

Airport or City:

Trip Planner

Search our weather history database for the weather conditions in past years. The results will help you decide how hot, cold, wet, or windy it might be!

Date:

Astronomy

Nov. 06, 2011 Rise Set
Actual Time 7:26 AM CST 4:58 PM CST
Civil Twilight 6:51 AM CST 5:32 PM CST
Nautical Twilight 6:13 AM CST 6:10 PM CST
Astronomical Twilight 5:35 AM CST 6:48 PM CST
Moon 2:58 PM CST (11/6) 3:15 AM CST (11/6)
Length of Visible Light 10h 40m
Length of Day
9h 31m
Waxing Gibbous, 86% of the Moon is Illuminated
Nov 6
Waxing Gibbous
Nov 10
Full
Nov 18
Last Quarter
Nov 25
New
Dec 2
First Quarter

Hourly Weather History & Observations

Time (CST) Temp. Windchill Dew Point Humidity Pressure Visibility Wind Dir Wind Speed Gust Speed Precip Events Conditions
12:00 AM 46.4 °F 40.1 °F 35.6 °F 66% 29.48 in 15.0 mi ESE 15.0 mph 24.2 mph N/A   Mostly Cloudy
1:00 AM 46 °F - 37 °F 60% 29.44 in 9 mi ESE 12.7 mph - -  
1:00 AM 46.4 °F 40.4 °F 37.4 °F 71% 29.44 in 15.0 mi ESE 13.8 mph - N/A   Overcast
1:00 AM 46.4 °F 40.7 °F 37.4 °F 71% 29.42 in 15.0 mi ESE 12.7 mph 18.4 mph N/A   Overcast
2:00 AM 50.0 °F - 39.2 °F 66% 29.40 in 15.0 mi SE 16.1 mph - N/A   Overcast
3:00 AM 50.0 °F - 41.0 °F 71% 29.37 in 15.0 mi ESE 16.1 mph - N/A   Overcast
4:00 AM 50.0 °F - 41.0 °F 71% 29.34 in 15.0 mi SE 17.3 mph 25.3 mph N/A   Mostly Cloudy
5:00 AM 48.2 °F - 41.0 °F 76% 29.32 in 15.0 mi SSE 19.6 mph - N/A   Mostly Cloudy
6:00 AM 49 °F - 42 °F 68% 29.30 in 9 mi SSE 17.3 mph - -  
6:00 AM 48.2 °F - 41.0 °F 76% 29.30 in 15.0 mi SSE 17.3 mph - N/A   Overcast
6:45 AM 48.2 °F - - N/A% - 15.0 mi SSE 17.3 mph - N/A Rain Light Rain
7:00 AM 48.2 °F - 42.8 °F 82% 29.28 in 15.0 mi SSE 15.0 mph - N/A Rain Light Rain
8:00 AM 48.2 °F - 42.8 °F 82% 29.27 in 15.0 mi SSE 11.5 mph - N/A Rain Light Rain
9:00 AM 48.2 °F - 44.6 °F 87% 29.24 in 6.0 mi SE 10.4 mph - N/A Rain Light Rain
10:00 AM 46.4 °F 41.9 °F 46.4 °F 100% 29.21 in 6.0 mi SE 9.2 mph - N/A Rain Light Rain
11:00 AM 46.4 °F 39.8 °F 42.8 °F 87% 29.20 in 10.0 mi South 16.1 mph 21.9 mph N/A   Overcast
12:00 PM 45 °F - 39 °F 71% 29.20 in 9 mi South 20.7 mph - -   Overcast
12:00 PM 44.6 °F 36.4 °F 39.2 °F 81% 29.20 in 15.0 mi South 20.7 mph 27.6 mph N/A   Overcast
1:00 PM 42.8 °F 34.3 °F 37.4 °F 81% 29.20 in 15.0 mi South 19.6 mph 25.3 mph N/A   Overcast
2:00 PM 42.8 °F 33.8 °F 37.4 °F 81% 29.21 in 12.0 mi SW 21.9 mph 27.6 mph N/A   Overcast
2:19 PM 42.8 °F 33.8 °F - N/A% - 12.0 mi SW 21.9 mph 28.8 mph N/A Rain Light Rain
3:00 PM 41.0 °F 31.9 °F 35.6 °F 81% 29.25 in 10.0 mi SW 19.6 mph 27.6 mph N/A Rain Light Rain
4:00 PM 39.2 °F 29.6 °F 33.8 °F 81% 29.28 in 15.0 mi SW 19.6 mph 25.3 mph N/A Rain Light Rain
5:00 PM 37.4 °F 28.2 °F 35.6 °F 93% 29.31 in 5.0 mi SW 16.1 mph - N/A Rain Light Rain
5:20 PM 35.6 °F 25.2 °F - N/A% - 5.0 mi SW 18.4 mph - N/A Rain Light Rain
5:42 PM 35.6 °F 25.9 °F - N/A% - 5.0 mi SW 16.1 mph 23.0 mph N/A Rain Light Rain
6:00 PM 35 °F - 34 °F 94% 29.33 in 9 mi SW 18.4 mph - -   Unknown Precipitation
6:00 PM 35.6 °F 24.8 °F 33.8 °F 93% 29.33 in 5.0 mi SW 19.6 mph 29.9 mph N/A Rain Light Rain
6:33 PM 33.8 °F 22.5 °F - N/A% - 4.0 mi SW 19.6 mph 25.3 mph N/A Rain , Snow Light Rain
7:00 PM 33.8 °F 21.9 °F 33.8 °F 100% 29.35 in 4.0 mi SW 21.9 mph - N/A Rain , Snow Light Rain
7:44 PM 33.8 °F 23.2 °F - N/A% - 1.5 mi SW 17.3 mph 23.0 mph N/A Snow Light Snow
8:00 PM 33.8 °F 23.5 °F 32.0 °F 93% 29.37 in 2.0 mi SW 16.1 mph 24.2 mph N/A Snow Light Snow
8:16 PM 33.8 °F 22.2 °F - N/A% - 4.0 mi SW 20.7 mph - N/A Rain , Snow Light Rain
9:00 PM 33.8 °F 24.3 °F 32.0 °F 93% 29.40 in 2.0 mi WSW 13.8 mph 23.0 mph N/A Rain , Snow Light Rain
10:00 PM 33.8 °F 23.2 °F 32.0 °F 93% 29.43 in 2.5 mi West 17.3 mph 24.2 mph N/A Rain , Snow Light Rain
10:28 PM 32.0 °F 21.2 °F - N/A% - 2.5 mi West 16.1 mph 23.0 mph N/A Snow Light Snow